Preview of NWS' New Version of Forecast
This preview is not operational and should not be used for support decisions.
Latest weather observations around

Demopolis Municipal Airport (KDYA)

Using English Units (Switch to International System of Units)
Date/ Time (CDT) Wind (mph) Vis. (mi) Weather Sky Cond. Temp (°F) Rel. Humidity Wind Chill (°F) Heat Index (°F) Pressure Precip. (in)
Air Dwpt 6 hour Altimeter (inHg) Sea level (inHg) 1 hr 3 hr 6 hr
Max Min
Apr 22 02:35 E 6 10 Clear CLR 65 56     72%     30.07        
Apr 22 02:15 E 8 10 Partly Cloudy SCT050 SCT070 65 55     71%     30.08        
Apr 22 01:55 ESE 7 10 Partly Cloudy SCT046 SCT055 SCT070 65 55     70%     30.08        
Apr 22 01:35 E 9 10 Partly Cloudy SCT080 66 55     69%     30.08        
Apr 22 01:15 E 5 10 Partly Cloudy SCT050 66 55     68%     30.09        
Apr 22 00:55 E 7 10 Partly Cloudy SCT065 SCT080 67 55     67%     30.09        
Apr 22 00:35 E 8 10 Mostly Cloudy SCT065 BKN075 67 55     66%     30.1        
Apr 22 00:15 E 8 10 Mostly Cloudy SCT048 SCT065 BKN075 67 55     66%     30.1        
Apr 21 23:55 E 11 10 Cloudy BKN048 OVC065 67 55     65%     30.11        
Apr 21 23:35 E 8 10 Mostly Cloudy SCT048 SCT060 BKN075 67 55     65%     30.11        
Apr 21 23:15 E 8 10 Cloudy BKN046 BKN060 OVC075 67 55     67%     30.1        
Apr 21 22:55 E 3 10 Cloudy BKN046 OVC050 65 56     72%     30.1        
Apr 21 22:35 Calm 10 Cloudy OVC060 64 57     78%     30.11        
Apr 21 22:15 Calm 10 Cloudy BKN060 OVC075 64 57     79%     30.11        
Apr 21 21:55 Calm 10 Mostly Cloudy BKN075 63 56     79%     30.11        
Apr 21 21:35 Calm 10 Partly Cloudy SCT075 64 56     76%     30.12        
Apr 21 21:15 Calm 10 Clear CLR 66 56     71%     30.11        
Apr 21 20:55 Calm 10 Clear CLR 67 56     68%     30.11        
Apr 21 20:35 E 5 10 Clear CLR 67 56     67%     30.1        
Apr 21 20:15 E 3 10 Partly Cloudy SCT045 SCT050 SCT075 68 56     66%     30.11        
Apr 21 19:55 E 3 10 Mostly Cloudy SCT045 BKN050 BKN075 69 56     63%     30.1        
Apr 21 19:35 E 3 10 Mostly Cloudy BKN045 BKN050 BKN075 70 56     61%   70 30.1        
Apr 21 19:15 E 3 10 Cloudy BKN047 OVC055 71 57     63%   70 30.1        
Apr 21 18:55 ENE 3 10 Mostly Cloudy SCT060 BKN070 72 57     60%   71 30.11        
Apr 21 18:35 E 3 10 Mostly Cloudy SCT050 BKN070 73 56     56%   73 30.11        
Apr 21 18:15 E 3 10 Cloudy BKN050 OVC070 74 56     54%   73 30.11        
Apr 21 17:55 ESE 6 10 Mostly Cloudy SCT055 BKN070 75 56     52%   74 30.1        
Apr 21 17:35 ESE 6 10 Clear CLR 74 56     54%   74 30.1        
Apr 21 17:15 E 7 10 Partly Cloudy SCT048 SCT060 SCT070 74 55     51%   74 30.09        
Apr 21 16:55 ESE 7 10 Mostly Cloudy SCT048 BKN070 76 55     49%   76 30.09        
Apr 21 16:35 ESE 3 10 Mostly Cloudy SCT050 BKN070 74 54     49%   74 30.1        
Apr 21 16:15 ESE 8 10 Mostly Cloudy SCT050 BKN070 76 55     48%   76 30.11        
Apr 21 15:55 ESE 9 10 Mostly Cloudy SCT045 SCT050 BKN070 75 56     50%   75 30.12        
Apr 21 15:35 E 9 10 Mostly Cloudy SCT041 SCT048 BKN070 76 55     49%   76 30.12        
Apr 21 15:15 E 6 10 Mostly Cloudy SCT043 SCT050 BKN070 74 56     52%   74 30.13        
Apr 21 14:55 ENE 7 10 Mostly Cloudy SCT060 BKN070 76 56     49%   76 30.14        
Apr 21 14:35 ESE 8 10 Mostly Cloudy SCT041 SCT049 BKN060 74 55     52%   73 30.15        
Apr 21 14:15 ESE 6 10 Mostly Cloudy SCT041 BKN047 BKN070 75 55     50%   75 30.16        
Apr 21 13:55 ESE 7 10 Mostly Cloudy BKN043 BKN049 BKN060 75 55     50%   75 30.17        
Apr 21 13:35 ESE 7 10 Mostly Cloudy SCT042 BKN060 74 54     51%   73 30.17        
Apr 21 13:15 SE 8 10 Mostly Cloudy BKN037 BKN046 BKN060 73 55     53%   73 30.18        
Apr 21 12:55 ESE 7 10 Cloudy SCT037 BKN048 OVC060 73 56     54%   73 30.19        
Apr 21 12:35 ESE 9 10 Cloudy SCT035 BKN048 OVC060 72 55     54%   72 30.2        
Apr 21 12:15 SE 9 10 Cloudy BKN035 BKN041 OVC050 72 55     56%   71 30.21        
Apr 21 11:55 SE 11 10 Mostly Cloudy BKN035 BKN041 BKN060 71 54     56%   70 30.21        
Apr 21 11:35 SSE 14 10 Partly Cloudy SCT033 71 55     56%   71 30.21        
Apr 21 11:15 E 8 10 Partly Cloudy SCT035 71 53     53%   71 30.21        
Apr 21 10:55 SE 10 10 Clear CLR 70 52     54%     30.22        
Apr 21 10:35 ESE 6 10 Clear CLR 68 50     52%     30.22        
Apr 21 10:15 ESE 11 10 Clear CLR 67 48     51%     30.22        
Apr 21 09:55 ESE 10 10 Clear CLR 67 47     49%     30.22        
Apr 21 09:35 ESE 7 10 Clear CLR 64 46     51%     30.23        
Apr 21 09:15 E 6 10 Clear CLR 63 45     54%     30.23        
Apr 21 08:55 E 8 10 Clear CLR 61 45     57%     30.23        
Apr 21 08:35 E 7 10 Clear CLR 58 46     63%     30.24        
Apr 21 08:15 Calm 10 Clear CLR 56 46     68%     30.24        
Apr 21 07:55 Calm 10 Clear CLR 53 45     73%     30.24        
Apr 21 07:35 Calm 10 Clear CLR 50 45     82%     30.24        
Apr 21 07:15 Calm 10 Clear CLR 47 44     88%     30.23        
Apr 21 06:55 Calm 10 Clear CLR 44 42     93%     30.22        
Apr 21 06:35 Calm 10 Clear CLR 44 42     91%     30.22        
Apr 21 06:15 Calm 10 Clear CLR 45 42     91%     30.22        
Apr 21 05:55 Calm 10 Clear CLR 45 43     92%     30.21        
Apr 21 05:35 Calm 10 Clear CLR 45 42     92%     30.21        
Apr 21 05:15 Calm 10 Clear CLR 43 41     92%     30.2        
Apr 21 04:55 Calm 10 Clear CLR 44 42     91%     30.21        
Apr 21 04:35 Calm 10 Clear CLR 45 42     91%     30.21        
Apr 21 04:15 Calm 10 Clear CLR 45 42     89%     30.21        
Apr 21 03:55 Calm 10 Clear CLR 45 43     91%     30.21        
Apr 21 03:35 Calm 10 Clear CLR 45 43     92%     30.21        
Apr 21 03:15 Calm 10 Clear CLR 45 44     93%     30.21        
Apr 21 02:55 Calm 10 Clear CLR 45 43     93%     30.2        
Apr 21 02:35 Calm 10 Clear CLR 45 43     93%     30.21        
Apr 21 02:15 Calm 10 Clear CLR 45 43     93%     30.21        
Apr 21 01:55 Calm 10 Clear CLR 45 42     92%     30.21        
Apr 21 01:35 Calm 10 Clear CLR 45 43     93%     30.22        
Apr 21 01:15 Calm 10 Clear CLR 45 43     93%     30.22        
Apr 21 00:55 Calm 10 Clear CLR 45 43     92%     30.22        
Apr 21 00:35 Calm 10 Clear CLR 46 44     91%     30.22        
Apr 21 00:15 Calm 10 Clear CLR 47 44     91%     30.23        
Apr 20 23:55 Calm 10 Clear CLR 47 44     91%     30.22        
Apr 20 23:35 Calm 10 Clear CLR 48 45     89%     30.22        
Apr 20 23:15 Calm 10 Clear CLR 50 45     86%     30.22        
Apr 20 22:55 Calm 10 Clear CLR 49 46     87%     30.22        
Apr 20 22:35 Calm 10 Clear CLR 50 46     87%     30.22        
Apr 20 22:15 Calm 10 Clear CLR 49 46     89%     30.22        
Apr 20 21:55 Calm 10 Clear CLR 50 47     88%     30.22        
Apr 20 21:35 Calm 10 Clear CLR 51 47     87%     30.22        
Apr 20 21:15 Calm 10 Clear CLR 52 47     83%     30.22        
Apr 20 20:55 Calm 10 Clear CLR 52 47     83%     30.22        
Apr 20 20:35 Calm 10 Clear CLR 55 46     74%     30.22        
Apr 20 20:15 Calm 10 Clear CLR 55 48     75%     30.21        
Apr 20 19:55 Calm 10 Clear CLR 58 47     66%     30.21        
Apr 20 19:35 Calm 10 Clear CLR 61 46     58%     30.2        
Apr 20 19:15 Calm 10 Clear CLR 64 48     57%     30.2        
Apr 20 18:55 Calm 10 Clear CLR 68 46     45%     30.2        
Apr 20 18:35 Calm 10 Clear CLR 70 39     32%     30.2        
Apr 20 18:15 N 8 10 Clear CLR 71 38     31%   69 30.21        
Apr 20 17:55 NNE 6 10 Clear CLR 71 38     30%   69 30.2        
Apr 20 17:35 NNE 5 10 Clear CLR 72 38     29%   70 30.2        
Apr 20 17:15 NNE 10 10 Clear CLR 72 37     29%   70 30.2        
Apr 20 16:55 NE 6 10 Clear CLR 72 38     29%   70 30.21        
Apr 20 16:35 NE 3 10 Clear CLR 72 37     28%   70 30.21        
Apr 20 16:15 NE 8 10 Clear CLR 72 36     28%   70 30.22        
Apr 20 15:55 NE 6 10 Clear CLR 72 37     29%   70 30.22        
Apr 20 15:35 ENE 9 10 Clear CLR 71 36     28%   69 30.23        
Apr 20 15:15 NE 6 10 Clear CLR 70 37     30%   68 30.24        
Apr 20 14:55 NNE 8 10 Clear CLR 69 36     30%     30.25        
Apr 20 14:35 NE 7 10 Clear CLR 69 37     31%     30.26        
Apr 20 14:15 ENE 8 10 Clear CLR 68 36     30%     30.26        
Apr 20 13:55 NNE 5 10 Clear CLR 67 37     32%     30.27        
Apr 20 13:35 NNE 3 10 Clear CLR 67 36     32%     30.28        
Apr 20 13:15 NNE 10 10 Clear CLR 65 37     35%     30.28        
Apr 20 12:55 NNE 7 10 Clear CLR 65 37     36%     30.28        
Apr 20 12:35 NNE 6 10 Clear CLR 65 37     35%     30.28        
Apr 20 12:15 NE 5 10 Clear CLR 63 35     36%     30.29        
Apr 20 11:55 E 6 10 Clear CLR 62 35     36%     30.3        
Apr 20 11:35 NNE 6 10 Clear CLR 61 35     38%     30.31        
Apr 20 11:15 E 7 10 Clear CLR 60 35     38%     30.32        
Apr 20 10:55 ENE 8 10 Clear CLR 59 34     40%     30.32        
Apr 20 10:35 NE 6 10 Clear CLR 58 36     43%     30.31        
Apr 20 10:15 ENE 7 10 Clear CLR 56 36     47%     30.32        
Apr 20 09:55 NE 7 10 Clear CLR 55 36     49%     30.31        
Apr 20 09:35 ENE 9 10 Clear CLR 53 36     52%     30.32        
Apr 20 09:15 ENE 6 10 Clear CLR 51 36     55%     30.32        
Apr 20 08:55 NE 5 10 Clear CLR 49 36     60% 47   30.31        
Apr 20 08:35 NE 7 10 Clear CLR 47 36     64% 44   30.31        
Apr 20 08:15 NNE 8 10 Clear CLR 46 36     68% 42   30.31        
Apr 20 07:55 NNE 7 10 Clear CLR 45 36     72% 41   30.31        
Apr 20 07:35 N 5 10 Clear CLR 44 37     77% 41   30.31        
Apr 20 07:15 Calm 10 Clear CLR 42 37     83%     30.3        
Apr 20 06:55 Calm 10 Clear CLR 41 36     84%     30.3        
Apr 20 06:35 Calm 10 Clear CLR 40 36     84%     30.29        
Apr 20 06:15 Calm 10 Clear CLR 40 36     84%     30.28        
Apr 20 05:55 Calm 10 Clear CLR 41 36     80%     30.28        
Apr 20 05:35 N 3 10 Clear CLR 42 36     79% 40   30.27        
Apr 20 05:15 N 3 10 Clear CLR 42 36     79% 40   30.26        
Apr 20 04:55 N 5 10 Clear CLR 42 36     79% 39   30.26        
Apr 20 04:35 N 6 10 Clear CLR 43 36     79% 39   30.26        
Apr 20 04:15 N 6 10 Clear CLR 43 37     79% 39   30.26        
Apr 20 03:55 N 5 10 Clear CLR 43 37     79% 40   30.25        
Apr 20 03:15 N 6 10 Clear CLR 43 37     82% 39   30.25        
Apr 20 02:55 Calm 10 Clear CLR 43 38     83%     30.25        
Apr 20 02:35 Calm 10 Clear CLR 43 38     84%     30.25        
Apr 20 02:15 Calm 10 Clear CLR 44 38     82%     30.24        
Apr 20 01:55 Calm 10 Clear CLR 44 38     79%     30.25        
Apr 20 01:35 Calm 10 Clear CLR 45 38     77%     30.25        
Apr 20 01:15 Calm 10 Clear CLR 45 39     77%     30.25        
Apr 20 00:55 Calm 10 Clear CLR 45 39     77%     30.25        
Apr 20 00:35 Calm 10 Clear CLR 46 39     77%     30.25        
Apr 19 23:55 Calm 10 Clear CLR 48 38     68%     30.25        
Apr 19 23:35 NNW 3 10 Clear CLR 50 37     61% 49   30.25        
Apr 19 23:15 N 5 10 Clear CLR 50 37     59%     30.24        
Apr 19 22:55 N 6 10 Clear CLR 52 36     55%     30.25        
Apr 19 22:35 NNW 5 10 Clear CLR 53 36     53%     30.25        
Apr 19 22:15 N 6 10 Clear CLR 53 36     54%     30.25        
Apr 19 21:55 NNW 6 10 Clear CLR 53 36     53%     30.25        
Apr 19 21:35 NNW 7 10 Clear CLR 54 37     53%     30.25        
Apr 19 21:15 NNW 6 10 Clear CLR 54 38     53%     30.24        
Apr 19 20:35 NNW 6 10 Clear CLR 56 38     52%     30.23        
Apr 19 20:15 NW 7 10 Clear CLR 56 38     51%     30.22        
Apr 19 19:55 NW 8 10 Clear CLR 56 39     51%     30.22        
Apr 19 19:35 NW 5 10 Clear CLR 58 39     49%     30.21        
Apr 19 19:15 NW 6 10 Clear CLR 59 38     47%     30.21        
Apr 19 18:55 NW 8 10 Clear CLR 61 37     42%     30.2        
Apr 19 18:35 NW 7 10 Clear CLR 62 37     40%     30.2        
Apr 19 18:15 NNW 6 10 Clear CLR 63 37     39%     30.2        
Apr 19 17:55 WNW 8 10 Clear CLR 63 37     37%     30.2        
Apr 19 17:35 NW 11 10 Clear CLR 64 37     37%     30.19        
Apr 19 17:15 WNW 11 10 Clear CLR 64 37     37%     30.18        
Apr 19 16:55 NW 9 10 Clear CLR 64 38     38%     30.18        
Apr 19 16:35 NNW 10 10 Clear CLR 64 37     37%     30.18        
Apr 19 16:15 NNW 9 10 Clear CLR 64 37     37%     30.19        
Apr 19 15:55 NW 8 10 Clear CLR 64 36     35%     30.19        
Apr 19 15:35 WNW 11 10 Clear CLR 64 35     34%     30.19        
Apr 19 15:15 NNW 17 10 Clear CLR 65 36     35%     30.19        
Apr 19 14:55 NNW 13 10 Clear CLR 65 38     37%     30.2        
Apr 19 14:35 NW 11 10 Clear CLR 65 38     37%     30.2        
Apr 19 14:15 NNW 9 10 Clear CLR 65 39     38%     30.2        
Apr 19 13:35 NNW 10 10 Clear CLR 65 39     38%     30.2        
Apr 19 13:15 NW 11 10 Clear CLR 65 38     37%     30.2        
Apr 19 12:55 NNW 11 10 Clear CLR 64 38     38%     30.21        
Apr 19 12:35 NW 9 10 Clear CLR 63 38     39%     30.21        
Apr 19 12:15 NW 13 10 Clear CLR 63 38     39%     30.21        
Apr 19 11:55 WNW 14 10 Clear CLR 63 39     40%     30.2        
Apr 19 11:35 NNW 10 10 Clear CLR 63 40     42%     30.2        
Apr 19 11:15 NW 13 10 Clear CLR 63 39     41%     30.2        
Apr 19 10:55 NNW 9 10 Clear CLR 63 41     45%     30.19        
Apr 19 10:35 NW 9 10 Clear CLR 64 42     45%     30.18        
Apr 19 10:15 NNW 9 10 Clear CLR 63 41     45%     30.18        
Apr 19 09:55 NW 9 10 Clear CLR 62 40     45%     30.17        
Notice The following observation data may not be complete
Apr 19 09:35   10 Clear CLR          %              
Apr 19 09:15 NNW 13 10 Clear CLR 61 42     49%     30.16        
Apr 19 08:55 N 10 10 Clear CLR 61 42     51%     30.15        
Apr 19 08:35 NNW 11 10 Clear CLR 60 42     52%     30.15        
Apr 19 08:15 NNW 9 10 Clear CLR 60 43     54%     30.14        
Apr 19 07:55 NNW 6 10 Clear CLR 60 44     56%     30.13        
Apr 19 07:35 NNW 7 10 Clear CLR 59 45     59%     30.12        
Notice The following observation data may not be complete
Apr 19 07:15   10 Clear CLR          %              
Apr 19 06:55 NNW 8 10 Clear CLR 59 47     65%     30.1        
Apr 19 06:35 NW 6 10 Clear CLR 59 47     64%     30.09        
Apr 19 06:15 NNW 7 10 Clear CLR 60 50     68%     30.07        
Apr 19 05:55 NNW 7 10 Clear CLR 60 53     78%     30.06        
Apr 19 05:35 NNW 5 10 Clear CLR 61 54     77%     30.04        
Notice The following observation data may not be complete
Apr 19 05:15   10 Clear CLR          %              
Apr 19 04:55 NW 6 10 Clear CLR 63 55     77%     30.03        
Apr 19 04:35 NW 5 10 Clear CLR 63 56     78%     30.02        
Apr 19 04:15 NW 7 10 Partly Cloudy SCT048 64 57     78%     30.01        
Apr 19 03:55 WNW 7 10 Mostly Cloudy SCT043 BKN050 65 58     79%     30.01        
Apr 19 03:35 W 6 10 Mostly Cloudy BKN041 BKN050 65 59     80%     30        
Notice The following observation data may not be complete
Apr 19 03:15   10 Clear CLR          %              
Apr 19 02:55 WSW 9 10 Clear CLR 65 60     82%     29.99        
Jun 11 23:15 SE 5 10 Clear   74 74     100%   76 30.1        
Notice The following observation data may not be complete
Jun 11 20:35   10 Clear            %              
Jun 11 20:15 N 3 10 Clear   74 74     100%   76 30.06        
Notice The following observation data may not be complete
Jun 11 19:35   10 Clear            %              
Jun 11 13:55 S 3 10 Clear   89 65     44%   91 30.09        
Notice The following observation data may not be complete
Jun 11 05:15   10 Clear            %              
Jun 11 02:15 Calm 10 Clear   67 66     99%     30.04        
Jun 11 00:35 Calm 10 Clear   67 66     96%     30.05        
Jun 10 22:15 Calm 10 Clear   71 67     87%   71 30.05        
Notice The following observation data may not be complete
Jun 10 20:35 Calm 10 Clear     66      %     30.01        
Jun 10 17:55 SE 6 10 Clear   87 60     40%   87 29.99        
Notice The following observation data may not be complete
Jun 10 15:15   10 Clear            %              
Jun 10 12:35 SSE 8 10 Clear   85 60     44%   85 30.06        
Notice The following observation data may not be complete
Jun 10 11:15   10 Clear            %              
Jun 10 07:35 Calm 10 Clear   67 65     93%     30.03        
Notice The following observation data may not be complete
Jun 10 03:55 Calm 10 Clear            %     29.98        
Jun 09 22:35 Calm 10 Clear   65 64     98%     29.97        
Jun 08 06:55 Calm 10 Clear   61 59     93%     29.91        
Notice The following observation data may not be complete
Jun 08 06:35   10 Clear            %              
Notice The following observation data may not be complete
Jun 07 18:35   10 Clear            %              
Jun 07 14:55 N 10 10 Clear   83 59     43%   83 29.8        
Notice The following observation data may not be complete
Jun 07 10:15   10 Clear            %              
Jun 06 14:35 NE 10 10 Clear   76 68     77%   77 29.74        
Jun 06 13:35 NW 6 10 Clear   81 71     70%   85 29.73        
Jun 06 10:15 NNW 5 10 Clear   76 73     88%   78 29.77        
Jun 06 09:55 N 3 10 Clear   76 73     92%   77 29.77        
Jun 05 16:35 WSW 3 10 Clear   78 71     78%   79 29.75